Weather History for KCSM - February, 2014

Change the Weather History Date:

Tuesday, February 11, 2014

  Actual Average Record
Temperature  
Mean Temperature 22 °F -  
Max Temperature 30 °F 51 °F 63 °F (1999)
Min Temperature 14 °F 30 °F 14 °F (2011)
Degree Days  
Heating Degree Days 43    
Moisture  
Dew Point 16 °F    
Average Humidity 82    
Maximum Humidity 88    
Minimum Humidity 69    
Precipitation  
Precipitation 0.00 in - - ()
Sea Level Pressure  
Sea Level Pressure 30.35 in    
Wind  
Wind Speed 13 mph (NNE)    
Max Wind Speed 20 mph    
Max Gust Speed -    
Visibility 10 miles    
Events      
Averages and records for this station are not official NWS values.
T = Trace of Precipitation, MM = Missing Value Source: NWS Daily Summary

Daily Weather History Graph

Daily Weather History Graph

Search for Another Location

Airport or City:

Trip Planner

Search our weather history database for the weather conditions in past years. The results will help you decide how hot, cold, wet, or windy it might be!

Date:

Astronomy

Feb. 11, 2014 Rise Set
Actual Time 7:27 AM CST 6:15 PM CST
Civil Twilight 7:01 AM CST 6:41 PM CST
Nautical Twilight 6:31 AM CST 7:11 PM CST
Astronomical Twilight 6:01 AM CST 7:41 PM CST
Moon 3:39 PM CST (2/11) 5:02 AM CST (2/11)
Length of Visible Light 11h 40m
Length of Day
10h 47m
Waxing Gibbous, 91% of the Moon is Illuminated
Feb 11
Waxing Gibbous
Feb 14
Full
Feb 22
Last Quarter
Mar 1
New
Mar 8
First Quarter

Hourly Weather History & Observations

Time (CST) Temp. Windchill Dew Point Humidity Pressure Visibility Wind Dir Wind Speed Gust Speed Precip Events Conditions
12:01 AM 15.8 °F -1.1 °F 12.2 °F 86% 30.33 in 10.0 mi NNE 19.6 mph - N/A   Overcast
12:53 AM 16.0 °F -0.4 °F 12.0 °F 84% 30.40 in 10.0 mi North 18.4 mph - N/A   Overcast
1:53 AM 14.0 °F -1.4 °F 10.9 °F 88% 30.40 in 10.0 mi North 15.0 mph - N/A   Partly Cloudy
2:53 AM 14.0 °F -0.8 °F 10.9 °F 88% 30.41 in 10.0 mi North 13.8 mph - N/A   Clear
3:53 AM 15.1 °F -0.1 °F 12.0 °F 88% 30.41 in 10.0 mi North 15.0 mph - N/A   Overcast
4:53 AM 16.0 °F 0.6 °F 12.0 °F 84% 30.41 in 10.0 mi North 16.1 mph - N/A   Overcast
5:17 AM 15.8 °F 0.9 °F 12.2 °F 86% 30.33 in 10.0 mi North 15.0 mph - N/A   Overcast
5:45 AM 15.8 °F 0.3 °F 12.2 °F 86% 30.33 in 10.0 mi North 16.1 mph - N/A   Overcast
5:53 AM 16.0 °F 1.1 °F 12.0 °F 84% 30.41 in 10.0 mi North 15.0 mph - N/A   Overcast
6:13 AM 15.8 °F 0.3 °F 12.2 °F 86% 30.34 in 10.0 mi North 16.1 mph - N/A   Overcast
6:24 AM 15.8 °F -0.2 °F 12.2 °F 86% 30.34 in 10.0 mi North 17.3 mph - N/A   Overcast
6:53 AM 15.1 °F -1.1 °F 12.0 °F 88% 30.43 in 10.0 mi North 17.3 mph - N/A   Overcast
7:22 AM 15.8 °F 0.9 °F 12.2 °F 86% 30.35 in 10.0 mi NNE 15.0 mph - N/A   Overcast
7:31 AM 15.8 °F 2.1 °F 12.2 °F 86% 30.35 in 9.0 mi North 12.7 mph - N/A   Overcast
7:53 AM 15.1 °F 1.8 °F 12.0 °F 88% 30.44 in 8.0 mi NNE 11.5 mph - N/A   Overcast
8:53 AM 16.0 °F 4.4 °F 12.0 °F 84% 30.45 in 8.0 mi NNE 9.2 mph - N/A   Overcast
9:53 AM 18.0 °F 7.7 °F 14.0 °F 84% 30.44 in 9.0 mi North 8.1 mph - N/A   Overcast
10:53 AM 21.0 °F 11.4 °F 15.1 °F 78% 30.42 in 10.0 mi NNE 8.1 mph - N/A   Scattered Clouds
11:53 AM 24.1 °F 16.0 °F 17.1 °F 75% 30.41 in 10.0 mi NE 6.9 mph - N/A   Overcast
12:53 PM 25.0 °F 17.1 °F 18.0 °F 75% 30.38 in 10.0 mi North 6.9 mph - N/A   Overcast
1:53 PM 26.1 °F 21.9 °F 19.0 °F 75% 30.33 in 10.0 mi ENE 3.5 mph - N/A   Overcast
2:53 PM 28.0 °F - 19.9 °F 72% 30.30 in 10.0 mi Calm Calm - N/A   Overcast
3:53 PM 28.9 °F 23.9 °F 19.9 °F 69% 30.26 in 10.0 mi ENE 4.6 mph - N/A   Overcast
4:53 PM 30.0 °F - 21.0 °F 69% 30.26 in 10.0 mi Calm Calm - N/A   Mostly Cloudy
5:53 PM 28.9 °F - 19.9 °F 69% 30.27 in 10.0 mi Calm Calm - N/A   Clear
6:53 PM 26.1 °F 20.5 °F 21.0 °F 81% 30.29 in 10.0 mi SSE 4.6 mph - N/A   Clear
7:53 PM 27.0 °F 23.0 °F 21.9 °F 81% 30.29 in 10.0 mi SSE 3.5 mph - N/A   Overcast
8:53 PM 28.0 °F 21.7 °F 21.9 °F 78% 30.28 in 10.0 mi SSE 5.8 mph - N/A   Overcast
9:53 PM 26.1 °F 21.9 °F 21.9 °F 84% 30.29 in 10.0 mi SSE 3.5 mph - N/A   Mostly Cloudy
10:53 PM 23.0 °F 14.7 °F 19.9 °F 88% 30.27 in 9.0 mi SSE 6.9 mph - N/A   Clear
11:53 PM 24.1 °F 17.0 °F 21.0 °F 88% 30.24 in 9.0 mi SSW 5.8 mph - N/A   Clear